SCP
0 0 0 0 0 0 0 0 0 0 0 0 0 0 0 0 0 0 0 0 0 0 0 0 0 0 0 0 0 0 0 0 0 0 0 0 0 0
0 0 0 0 0 0 0 0 0 0 0 0 0 0 0 0 0 0 0 0 0 0 0 0 0 0 0 0 0 0 0 0 0 0 0 0 0 0
0 0 0 0 0 0 0 0 0 0 0 0 0 0 0 0 0 0 0 0 0 0 0 0 0 0 0 0 0 0 0 0 0 0 0 0 0 0
0 0 0 0 0 0 0 0 0 0 0 0 0 0 0 0 0 0 0 0 0 0 0 0 0 0 0 0 0 0 0 0 0 0 0 0 0 0
0 0 0 0 0 0 0 0 0 0 0 0 0 0 0 0 0 0 0 0 0 0 0 0 0 0 0 0 0 0 0 0 0 0 0 0 0 0
0 0 0 0 0 0 0 0 0 0 0 0 0 0 0 0 0 0 0 0 0 0 0 0 0 0 0 0 0 0 0 0 0 0 0 0 0 0
0 0 0 0 0 0 0 0 0 0 0 0 0 0 0 0 0 0 0 0 0 0 0 0 0 0 0 0 0 0 0 0 0 0 0 0 0 0
0 0 0 0 0 0 0 0 0 0 0 0 0 0 0 0 0 0 0 0 0 0 0 0 0 0 0 0 0 0 0 0 0 0 0 0 0 0
0 0 0 0 0 0 0 0 0 0 0 0 0 0 0 0 0 0 0 0 0 0 0 0 0 0 0 0 0 0 0 0 0 0 0 0 0 0
0 0 0 0 0 0 0 0 0 0 0 0 0 0 0 0 0 0 0 0 0 0 0 0 0 0 0 0 0 0 0 0 0 0 0 0 0 0
0 0 0 0 0 0 0 0 0 0 0 0 0 0 0 0 0 0 0 0 0 0 0 0 0 0 0 0 0 0 0 0 0 0 0 0 0 0
0 0 0 0 0 0 0 0 0 0 0 0 0 0 0 0 0 0 0 0 0 0 0 0 0 0 0 0 0 0 0 0 0 0 0 0 0 0
0 0 0 0 0 0 0 0 0 0 0 0 0 0 0 0 0 0 0 0 0 0 0 0 0 0 0 0 0 0 0 0 0 0 0 0 0 0
0 0 0 0 0 0 0 0 0 0 0 0 0 0 0 0 0 0 0 0 0 0 0 0 0 0 0 0 0 0 0 0 0 0 0 0 0 0
0 0 0 0 0 0 0 0 0 0 0 0 0 0 0 0 0 0 0 0 0 0 0 0 0 0 0 0 0 0 0 0 0 0 0 0 0 0
0 0 0 0 0 0 0 0 0 0 0 0 0 0 0 0 0 0 0 0 0 0 0 0 0 0 0 0 0 0 0 0 0 0 0 0 0 0
0 0 0 0 0 0 0 0 0 0 0 0 0 0 0 0 0 0 0 0 0 0 0 0 0 0 0 0 0 0 0 0 0 0 0 0 0 0
0 0 0 0 0 0 0 0 0 0 0 0 0 0 0 0 0 0 0 0 0 0 0 0 0 0 0 0 0 0 0 0 0 0 0 0 0 0
0 0 0 0 0 0 0 0 0 0 0 0 0 0 0 0 0 0 0 0 0 0 0 0 0 0 0 0 0 0 0 0 0 0 0 0 0 0
0 0 0 0 0 0 0 0 0 0 0 0 0 0 0 0 0 0 0 0 0 0 0 0 0 0 0 0 0 0 0 0 0 0 0 0 0 0
0 0 0 0 0 0 0 0 -0 -0 -0 0 0 0 0 0 0 0 0 0 0 0 0 0 0 0 0 0 0 0 0 0 0 0 0 0 0 0
0 0 0 0 0 0 0 0 -0 -0 -0 0 0 0 0 0 0 0 0 0 0 0 0 0 0 0 0 0 0 0 0 0 0 0 0 0 0 0
0 0 0 0 0 0 0 0 -0 -0 -0 0 0 0 0 0 0 0 0 0 0 0 0 0 0 0 0 0 0 0 0 0 0 0 0 0 0 0
Wind_Speed
4 4 4 3 3 3 3 3 3 4 5 4 3 4 3 4 6 5 6 8 9 9 10 10 11 11 11 11 11 11 11 10 10 10 11 11 12 12
2 3 3 2 2 3 3 3 4 4 5 4 4 4 4 5 6 5 6 8 10 10 10 10 10 11 12 11 11 11 11 11 11 11 12 12 13 13
2 2 3 3 2 2 2 3 4 4 5 5 4 4 4 5 5 4 5 5 6 9 10 9 10 10 11 12 12 12 12 12 12 12 12 12 13 13
3 3 3 2 3 3 3 4 4 4 5 6 4 3 4 5 5 5 4 4 5 7 9 9 9 9 10 11 11 11 12 12 12 12 12 12 12 12
3 3 4 3 4 4 4 4 4 4 4 5 5 3 3 3 3 4 4 4 4 5 7 8 9 9 9 10 10 10 11 11 12 12 12 11 11 11
3 4 4 4 5 5 4 4 4 4 4 4 4 3 3 3 2 3 3 3 4 4 4 5 7 8 9 9 10 10 11 11 12 12 11 11 10 11
4 4 5 5 6 5 4 4 4 3 3 3 4 3 4 3 3 2 3 4 4 3 3 4 4 4 5 7 9 10 11 12 12 12 11 11 11 10
5 5 5 5 6 7 7 6 5 4 4 4 4 5 6 4 3 3 3 3 4 2 2 4 3 4 4 5 7 9 10 11 11 12 11 11 11 10
4 4 4 5 5 4 6 6 6 7 7 6 6 7 6 5 4 4 4 4 4 3 2 4 3 4 4 4 7 8 9 10 11 11 11 11 11 10
4 4 5 5 4 4 4 5 5 5 6 6 7 7 6 5 4 4 4 4 4 3 3 4 3 4 4 3 5 7 8 9 9 10 11 10 10 9
4 4 4 4 5 4 3 4 5 5 5 5 6 6 7 7 5 2 2 2 3 3 2 3 3 3 3 3 3 5 6 7 8 8 9 9 9 8
4 4 4 4 5 4 3 3 5 5 5 5 4 4 4 4 4 4 3 3 2 3 2 2 2 2 3 2 2 2 2 4 6 7 8 9 9 5
3 4 3 5 5 5 4 3 5 6 5 4 4 3 3 2 2 2 3 4 4 4 3 2 2 2 2 2 2 2 2 2 2 4 6 8 9 7
3 3 4 6 6 6 4 4 5 4 2 2 3 3 3 3 3 3 4 4 5 6 5 3 3 2 2 3 3 2 2 2 2 2 2 4 6 8
2 4 6 7 6 5 5 6 4 2 1 2 3 3 3 4 3 3 3 2 3 4 3 4 3 3 3 3 3 2 2 2 2 2 2 2 3 3
3 4 5 5 4 4 5 4 2 2 2 2 3 4 3 3 2 2 2 2 2 2 2 3 3 3 3 3 3 3 3 2 1 2 2 2 2 3
3 2 3 3 4 4 3 3 3 3 2 3 3 3 3 3 2 2 2 1 1 2 3 2 2 2 3 3 2 3 2 2 2 1 1 2 2 3
1 2 3 3 4 4 4 4 3 3 3 3 3 3 3 3 3 2 1 1 2 2 2 2 2 1 0 1 2 3 2 2 2 1 1 2 2 1
1 2 3 3 3 3 3 3 4 4 3 3 3 3 3 2 2 2 2 2 2 2 2 2 1 1 1 2 2 1 2 2 1 1 1 2 2 2
1 2 3 3 3 3 3 3 4 4 4 4 3 3 3 2 2 2 2 2 3 3 3 2 2 1 2 2 2 2 2 2 1 1 1 1 1 1
2 2 3 3 3 3 3 3 3 4 4 3 3 4 3 2 2 2 2 3 2 2 3 3 3 3 1 0 1 2 2 2 1 1 1 1 1 1
2 2 3 3 2 3 2 3 3 4 4 3 3 3 3 3 3 3 3 3 3 3 3 3 2 1 1 0 1 2 2 3 3 3 2 1 1 1
2 2 2 2 2 2 2 3 4 4 4 3 3 3 3 3 3 3 3 3 3 3 2 2 2 2 1 1 1 2 2 2 2 2 3 5 2 1
Wind_Direction
235 233 235 241 229 223 216 211 224 265 276 272 273 272 269 265 261 256 253 254 253 251 249 245 240 237 238 239 238 235 234 232 230 231 233 235 239 243
237 236 243 247 242 231 222 220 217 228 258 267 260 278 282 282 273 262 257 261 255 251 250 248 243 239 236 234 233 231 229 229 229 231 232 234 236 240
258 246 259 254 257 255 241 231 225 219 246 268 262 276 272 278 289 277 266 257 255 251 251 249 247 243 239 234 231 228 227 228 230 232 234 235 236 237
265 259 264 264 262 258 253 249 242 228 234 265 275 275 267 274 281 283 279 268 260 254 249 249 248 244 239 235 232 228 227 227 229 231 232 234 234 233
255 254 261 265 270 268 262 259 254 248 236 251 268 268 270 278 289 290 286 277 270 258 251 248 248 244 239 238 234 228 224 226 228 228 229 230 230 228
263 258 257 253 259 264 263 263 261 259 250 251 261 269 269 275 268 278 292 289 283 283 268 258 249 245 241 239 236 231 225 224 227 228 226 225 226 226
280 273 265 262 263 256 257 261 258 257 260 258 263 268 270 267 267 263 277 295 287 264 276 278 264 256 245 236 233 232 227 224 224 225 225 224 226 227
283 286 282 273 275 271 268 263 250 247 254 252 257 262 266 266 264 264 270 282 288 263 272 286 267 258 254 242 232 228 226 225 224 224 222 221 223 227
275 285 290 289 289 282 284 286 274 258 242 240 252 257 260 257 253 260 255 257 265 273 271 279 266 265 263 249 231 230 230 227 225 224 221 219 219 222
279 277 277 287 292 287 290 295 290 280 262 248 248 255 260 260 244 243 256 268 276 263 233 261 270 273 276 263 241 235 235 231 225 225 222 218 218 220
299 291 286 287 298 303 298 299 303 302 292 275 269 270 272 267 252 237 243 253 278 279 230 245 268 285 283 273 260 244 242 238 232 226 221 218 216 217
320 314 304 303 308 316 298 291 295 298 308 313 306 302 288 276 250 225 226 235 256 270 229 230 262 276 287 277 267 264 249 243 235 227 223 219 213 212
323 326 331 335 328 321 306 283 279 290 300 301 303 307 310 301 282 250 228 224 234 248 232 220 252 255 258 285 287 272 262 258 247 232 226 222 214 206
312 319 329 341 338 334 327 312 303 300 303 309 312 313 313 307 299 285 260 241 239 247 248 232 241 250 258 270 276 279 272 259 241 239 233 215 215 214
310 320 329 337 339 340 338 333 333 332 326 318 306 298 292 291 295 299 295 272 262 253 251 244 240 248 244 252 262 268 276 266 236 228 232 225 217 204
326 330 334 338 341 332 335 343 346 337 319 299 295 296 302 306 307 309 304 310 305 302 285 261 245 234 244 251 249 263 260 253 243 243 249 251 235 220
336 345 352 354 356 351 346 341 341 344 333 318 308 310 313 311 307 309 300 301 288 294 314 329 312 261 242 238 243 252 262 268 260 250 244 261 253 235
28 351 343 343 339 336 337 338 337 336 329 323 321 313 310 309 316 324 314 299 296 300 311 325 331 330 290 255 226 246 256 268 282 260 232 247 266 257
43 335 326 325 324 327 329 331 330 328 327 325 325 323 320 321 326 329 327 322 321 315 318 320 308 288 283 295 299 249 250 268 279 282 265 251 267 293
342 319 314 316 318 324 326 328 329 332 334 332 331 333 332 324 325 326 332 332 326 325 324 322 307 285 263 282 300 311 289 254 240 257 274 266 272 285
322 314 309 311 316 321 324 329 332 331 331 328 330 335 335 330 327 329 329 326 319 315 313 310 310 310 290 271 285 306 340 350 318 256 264 254 267 277
313 308 307 311 314 317 323 329 332 330 331 329 328 330 331 329 327 329 331 329 324 318 311 314 330 355 25 346 310 317 343 8 32 44 23 300 255 240
305 307 311 315 317 319 320 324 325 323 323 323 323 324 326 325 326 331 332 331 329 334 338 340 354 13 14 348 317 322 344 356 3 20 20 19 32 4